Location: Earls Croome
(52.0667°N, 2.2000°W)
Time: 02:40:05
(UTC+00:00)

CZ-4C R/B - Pass Details

Date: 17 November 2019
Orbit: 650 x 1352 km, 63.4° (Epoch: 09 December)

Event Time Altitude Azimuth Distance (km) Brightness Sun altitude
Exits shadow 05:17:49 25° 319° (NW) 1,784 3.5 -20.3°
Maximum altitude 05:19:58 31° 353° (N) 1,642 3.6 -19.9°
Drops below altitude 10° 05:26:05 10° 54° (NE) 2,971 5.7 -19.0°
Sets 05:29:23 0° 65° (ENE) 4,048 6.7 -18.5°
